Location: *
(50.6089°N, 2.2719°E)
Time: 04:04:53
(UTC+00:00)

STARLINK-39 - Pass Details

Date: 18 October 2019
Orbit: 548 x 551 km, 53.0° (Epoch: 20 November)

Event Time Altitude Azimuth Distance (km) Brightness Sun altitude
Rises 18:14:18 0° 260° (W) 2,714 8.9 -13.5°
Reaches altitude 10° 18:16:33 10° 262° (W) 1,823 7.7 -13.9°
Maximum altitude 18:20:41 71° 348° (NNW) 583 3.7 -14.6°
Enters shadow 18:23:04 24° 68° (ENE) 1,156 4.7 -14.9°
